{"data":{"norad_id":39089,"epoch":"2026-05-25T01:45:53.633952Z","epoch_age_seconds":71779,"freshness":"FRESH","line1":"1 39089U 13009D   26145.07353743  .00000123  00000+0  57220-4 0  9997","line2":"2 39089  98.4174 325.6567 0010174 320.5601  39.4844 14.35817119693424","mean_motion":14.35817119,"eccentricity":0.0010174,"inclination_deg":98.4174,"raan_deg":325.6567,"arg_perigee_deg":320.5601,"mean_anomaly_deg":39.4844,"bstar":5.722e-5,"rev_number":69342,"period_min":100.29132407914,"perigee_km":765.07731851612,"apogee_km":779.6271339937,"semimajor_km":7150.4892262549,"source":"CELESTRAK","updated_at":"2026-05-25T13:38:24.641017Z"}}